View from above orbital plane
|
View from above satellite
|
Ground track
|
The orbit data is extracted from the following two-line orbital elements,
1 115U 60002D 21024.01849312 .00000008 00000-0 27973-4 0 9992
2 115 48.1669 293.5490 0033836 141.3555 218.9788 14.83685791245727
Epoch (UTC): | 24 January 2021 00:26:37 |
Eccentricity: | 0.0033836 |
inclination: | 48.1669° |
perigee height: | 594 km |
apogee height: | 641 km |
right ascension of ascending node: | 293.5490° |
argument of perigee: | 141.3555° |
revolutions per day: | 14.83685791 |
mean anomaly at epoch: | 218.9788° |
orbit number at epoch: | 24572 |
The dashed part of the orbit path shows where the satellite is in the earth's shadow,
|
|